AirNav   Everest Fuels
 
 665 users online  

24OI Reeds Airport
St Paris, Ohio, USA

GOING TO ST PARIS?


FAA INFORMATION EFFECTIVE 08 SEPTEMBER 2022

Location

FAA Identifier: 24OI
Lat/Long: 40-04-40.2070N 083-53-49.7590W
40-04.670117N 083-53.829317W
40.0778353,-83.8971553
(estimated)
Elevation: 1200 ft. / 366 m (estimated)
Variation: 04W (1985)
From city: 5 miles SE of ST PARIS, OH
Time zone: UTC -4 (UTC -5 during Standard Time)
Zip code: 43078

Airport Operations

Airport use: Private use. Permission required prior to landing
Activation date: 07/1984
Control tower: no
ARTCC: INDIANAPOLIS CENTER
FSS: DAYTON FLIGHT SERVICE STATION
Attendance: UNATNDD
Wind indicator: yes
Segmented circle: no

Airport Communications

WX AWOS-3 at I74 (7 nm NE): 118.325 (937-484-5863)
WX AWOS-3PT at SGH (14 nm S): 134.975 (937-324-4532)
WX AWOS-3 at SCA (15 nm NW): 120.425 (937-492-3683)
WX AWOS-3 at EDJ (18 nm N): 118.075 (937-599-4654)
WX ASOS at DAY (18 nm SW): PHONE 937-415-6819

Nearby radio navigation aids

VOR radial/distance  VOR name  Freq  Var
RODr157/14.3ROSEWOOD VORTAC117.5005W
DQNr082/23.2DAYTON VOR/DME114.5001W
MXQr358/39.1MIDWEST VOR/DME112.9004W

 
NDB name  Hdg/Dist  Freq  Var  ID
COURT HOUSE327/36.941406WCSS -.-. ... ...

Airport Services

Runway Information

Runway 18/36

Dimensions: 2000 x 75 ft. / 610 x 23 m
Surface: turf
RUNWAY 18  RUNWAY 36
Traffic pattern: leftleft
Obstructions: none35 ft. pline, 225 ft. from runway

Airport Ownership and Management from official FAA records

Ownership: Privately-owned
Owner: DAVID & PAULINE REED
5734 NETTLE CREEK RD
URBANA, OH 43078
Phone 937-508-8682
Manager: DAVID & PAULINE REED
5734 NETTLE CREEK RD
URBANA, OH 43078
Phone 937-508-8682

Airport Operational Statistics

Aircraft based on the field: 1
Single engine airplanes: 1
    

Additional Remarks

FOR CD CTC COLUMBUS APCH AT 614-338-8537

Instrument Procedures

There are no published instrument procedures at 24OI.

Some nearby airports with instrument procedures:

I74 - Grimes Field Airport (7 nm NE)
KSGH - Springfield/Beckley Municipal Airport (14 nm S)
KSCA - Sidney Municipal Airport (15 nm NW)
KFFO - Wright-Patterson Air Force Base (17 nm SW)
KEDJ - Bellefontaine Regional Airport (18 nm N)
KDAY - James M Cox Dayton International Airport (18 nm SW)
I17 - Piqua Airport/Hartzell Field (20 nm W)
 
Loc | Ops | Rwys | IFR | FBO | Links
Com | Nav | Svcs | Stats | Notes
Area around 24OI (Reeds Airport)
 
Road maps at: MapQuest Bing Google
 
Aerial photo
No photo
 
Sectional chart

 
Airport distance calculator
Flying to Reeds Airport? Find the distance to fly.

From to 24OI

Sunrise and sunset
Times for 03-Oct-2022
 Local
(UTC-4)
 Zulu
(UTC)
Morning civil twilight07:0811:08
Sunrise07:3511:35
Sunset19:1423:14
Evening civil twilight19:4123:41

Current date and time
Zulu (UTC)  03-Oct-2022 11:04:54
Local (UTC-4)  03-Oct-2022 07:04:54
 
METAR
KI74 
7nm NE 
031055Z AUTO 00000KT 10SM 05/04 A3030 RMK AO2
KSGH 
16nm S 
031056Z AUTO 04007KT 10SM CLR 05/ A3029 RMK AO2 SLP264 T0050
KFFO 
17nm S 
031055Z AUTO 01005KT 10SM CLR 07/05 A3027 RMK AO2 SLP255 T00690046
KEDJ 
18nm N 
031055Z AUTO 04006KT 10SM CLR 05/05 A3031 RMK A01
KDAY 
18nm SW 
031056Z 01007KT 10SM CLR 06/03 A3031 RMK AO2 SLP267 T00560033
TAF
KFFO 
17nm S 
030300Z 0303/0409 04009KT 9999 SKC QNH3026INS BECMG 0308/0310 03009KT 9999 FEW010 SCT020 QNH3027INS BECMG 0312/0314 04009KT 9999 FEW020 QNH3025INS WND 04006KT AFT 0400 BECMG 0407/0408 03004KT 8000 BR SKC QNH3023INS TX20/0320Z TN06/0311Z
KDAY 
18nm SW 
030531Z 0306/0406 03006KT P6SM SKC FM031600 04010KT P6SM FEW250 FM032300 03007KT P6SM SCT250
NOTAMs
Click for the latest NOTAMs
NOTAMs are issued by the DoD/FAA and will open in a separate window not controlled by AirNav.

 

 
 

Would you like to see your business listed on this page?

 If your business provides an interesting product or service to pilots, flight crews, aircraft, or users of the Reeds Airport, you should consider listing it here.  To start the listing process, click on the button below
 
Add a business
 

Other Pages about Reeds Airport

Update a link
 
Copyright © AirNav, LLC. All rights reserved. Privacy Policy  Contact